Location: Nelson
(47.1935°N, 121.0537°W)
Time: 06:06:37
(UTC+00:00)

BlueWalker 3 - Pass Details

Date: 05 December 2022
Orbit: 499 x 517 km, 53.2° (Epoch: 27 January)

Event Time Altitude Azimuth Distance (km) Brightness Sun altitude
Rises 00:39:39 0° 279° (W) 2,638 6.6 -4.4°
Reaches altitude 10° 00:42:01 10° 288° (WNW) 1,748 5.4 -4.8°
Maximum altitude 00:45:39 34° 355° (N) 868 3.0 -5.3°
Drops below altitude 10° 00:49:15 10° 62° (ENE) 1,735 4.0 -5.9°
Enters shadow 00:49:49 - 65° (ENE) 1,938 4.2 -5.9°
